Time,TemperatureF,DewpointF,PressureIn,WindDirection,WindDirectionDegrees,WindSpeedMPH,WindSpeedGustMPH,Humidity,HourlyPrecipIn,Conditions,Clouds,dailyrainin,SoftwareType,DateUTC
2013-02-22 00:00:00,40.0,19.8,30.33,ESE,104,0.0,4.0,44,0.00,,,0.00,HR-IXPWINDi_r2_v1.2.,2013-02-22 05:00:00,
2013-02-22 00:05:00,39.9,20.3,30.34,East,86,0.0,2.0,45,0.00,,,0.00,HR-IXPWINDi_r2_v1.2.,2013-02-22 05:05:00,
2013-02-22 00:10:00,39.8,20.2,30.34,East,87,0.0,2.0,45,0.00,,,0.00,HR-IXPWINDi_r2_v1.2.,2013-02-22 05:10:00,
2013-02-22 00:15:00,39.7,20.1,30.34,East,87,0.0,2.0,45,0.00,,,0.00,HR-IXPWINDi_r2_v1.2.,2013-02-22 05:15:00,
2013-02-22 00:20:00,39.6,20.0,30.34,East,88,0.0,2.0,45,0.00,,,0.00,HR-IXPWINDi_r2_v1.2.,2013-02-22 05:20:00,
2013-02-22 00:26:00,39.5,19.9,30.35,East,82,3.0,5.0,45,0.00,,,0.00,HR-IXPWINDi_r2_v1.2.,2013-02-22 05:26:00,
2013-02-22 00:31:00,39.5,20.4,30.35,East,85,1.0,5.0,46,0.00,,,0.00,HR-IXPWINDi_r2_v1.2.,2013-02-22 05:31:00,
2013-02-22 00:36:00,39.4,20.8,30.36,East,86,0.0,5.0,47,0.00,,,0.00,HR-IXPWINDi_r2_v1.2.,2013-02-22 05:36:00,
2013-02-22 00:41:00,39.3,20.3,30.37,ENE,64,0.0,2.0,46,0.00,,,0.00,HR-IXPWINDi_r2_v1.2.,2013-02-22 05:41:00,
2013-02-22 00:46:00,39.3,19.7,30.37,ESE,105,2.0,3.0,45,0.00,,,0.00,HR-IXPWINDi_r2_v1.2.,2013-02-22 05:46:00,
2013-02-22 00:51:00,39.3,20.3,30.36,East,98,0.0,3.0,46,0.00,,,0.00,HR-IXPWINDi_r2_v1.2.,2013-02-22 05:51:00,
2013-02-22 00:56:00,39.2,20.2,30.36,ESE,105,0.0,3.0,46,0.00,,,0.00,HR-IXPWINDi_r2_v1.2.,2013-02-22 05:56:00,
2013-02-22 01:02:00,39.2,20.2,30.37,East,98,0.0,2.0,46,0.00,,,0.00,HR-IXPWINDi_r2_v1.2.,2013-02-22 06:02:00,
2013-02-22 01:07:00,39.2,19.6,30.37,ESE,108,0.0,2.0,45,0.00,,,0.00,HR-IXPWINDi_r2_v1.2.,2013-02-22 06:07:00,
2013-02-22 01:12:00,39.1,20.6,30.38,SE,124,0.0,2.0,47,0.00,,,0.00,HR-IXPWINDi_r2_v1.2.,2013-02-22 06:12:00,
2013-02-22 01:18:00,39.1,20.1,30.38,ESE,123,0.0,2.0,46,0.00,,,0.00,HR-IXPWINDi_r2_v1.2.,2013-02-22 06:18:00,
2013-02-22 01:23:00,38.9,20.4,30.38,ESE,123,0.0,1.0,47,0.00,,,0.00,HR-IXPWINDi_r2_v1.2.,2013-02-22 06:23:00,
2013-02-22 01:28:00,38.9,19.9,30.37,ESE,123,0.0,1.0,46,0.00,,,0.00,HR-IXPWINDi_r2_v1.2.,2013-02-22 06:28:00,
2013-02-22 01:33:00,38.8,20.3,30.37,ESE,123,0.0,1.0,47,0.00,,,0.00,HR-IXPWINDi_r2_v1.2.,2013-02-22 06:33:00,
2013-02-22 01:39:00,38.8,20.3,30.37,East,84,0.0,2.0,47,0.00,,,0.00,HR-IXPWINDi_r2_v1.2.,2013-02-22 06:39:00,
2013-02-22 01:44:00,38.7,20.7,30.37,ENE,78,1.0,2.0,48,0.00,,,0.00,HR-IXPWINDi_r2_v1.2.,2013-02-22 06:44:00,
2013-02-22 01:49:00,38.7,20.2,30.37,SE,132,0.0,3.0,47,0.00,,,0.00,HR-IXPWINDi_r2_v1.2.,2013-02-22 06:49:00,
2013-02-22 01:54:00,38.7,21.2,30.36,SE,132,0.0,3.0,49,0.00,,,0.00,HR-IXPWINDi_r2_v1.2.,2013-02-22 06:54:00,
2013-02-22 01:59:00,38.6,20.6,30.36,ESE,102,0.0,3.0,48,0.00,,,0.00,HR-IXPWINDi_r2_v1.2.,2013-02-22 06:59:00,
2013-02-22 02:05:00,38.6,20.6,30.36,ESE,119,0.0,3.0,48,0.00,,,0.00,HR-IXPWINDi_r2_v1.2.,2013-02-22 07:05:00,
2013-02-22 02:10:00,38.5,20.5,30.36,East,90,1.0,3.0,48,0.00,,,0.00,HR-IXPWINDi_r2_v1.2.,2013-02-22 07:10:00,
2013-02-22 02:15:00,38.5,20.5,30.36,ESE,115,2.0,7.0,48,0.00,,,0.00,HR-IXPWINDi_r2_v1.2.,2013-02-22 07:15:00,
2013-02-22 02:20:00,38.4,20.4,30.35,ESE,103,0.0,7.0,48,0.00,,,0.00,HR-IXPWINDi_r2_v1.2.,2013-02-22 07:20:00,
2013-02-22 02:25:00,38.4,20.4,30.35,ESE,108,0.0,7.0,48,0.00,,,0.00,HR-IXPWINDi_r2_v1.2.,2013-02-22 07:25:00,
2013-02-22 02:30:00,38.4,20.4,30.36,ESE,115,0.0,2.0,48,0.00,,,0.00,HR-IXPWINDi_r2_v1.2.,2013-02-22 07:30:00,
2013-02-22 02:36:00,38.3,20.3,30.36,East,101,1.0,3.0,48,0.00,,,0.00,HR-IXPWINDi_r2_v1.2.,2013-02-22 07:36:00,
2013-02-22 02:41:00,38.2,20.7,30.36,East,101,2.0,3.0,49,0.00,,,0.00,HR-IXPWINDi_r2_v1.2.,2013-02-22 07:41:00,
2013-02-22 02:46:00,38.0,24.1,30.36,East,92,6.0,6.0,57,0.00,,,0.00,HR-IXPWINDi_r2_v1.2.,2013-02-22 07:46:00,
2013-02-22 02:51:00,37.1,25.7,30.37,East,98,1.0,6.0,63,0.00,,,0.00,HR-IXPWINDi_r2_v1.2.,2013-02-22 07:51:00,
2013-02-22 02:57:00,36.3,27.1,30.37,NW,309,2.0,6.0,69,0.00,,,0.00,HR-IXPWINDi_r2_v1.2.,2013-02-22 07:57:00,
2013-02-22 03:02:00,35.5,27.7,30.37,ESE,105,0.0,3.0,73,0.00,,,0.00,HR-IXPWINDi_r2_v1.2.,2013-02-22 08:02:00,
2013-02-22 03:07:00,35.0,27.5,30.37,SE,145,0.0,3.0,74,0.00,,,0.00,HR-IXPWINDi_r2_v1.2.,2013-02-22 08:07:00,
2013-02-22 03:13:00,34.6,28.1,30.37,East,98,0.0,5.0,77,0.00,,,0.00,HR-IXPWINDi_r2_v1.2.,2013-02-22 08:13:00,
2013-02-22 03:18:00,34.2,28.7,30.37,ESE,113,2.0,5.0,80,0.00,,,0.00,HR-IXPWINDi_r2_v1.2.,2013-02-22 08:18:00,
2013-02-22 03:23:00,33.8,28.9,30.36,ESE,103,1.0,3.0,82,0.00,,,0.00,HR-IXPWINDi_r2_v1.2.,2013-02-22 08:23:00,
2013-02-22 03:28:00,33.5,29.2,30.34,ESE,109,0.0,3.0,84,0.00,,,0.00,HR-IXPWINDi_r2_v1.2.,2013-02-22 08:28:00,
2013-02-22 03:33:00,33.2,29.2,30.32,East,84,2.0,3.0,85,0.00,,,0.00,HR-IXPWINDi_r2_v1.2.,2013-02-22 08:33:00,
2013-02-22 03:38:00,32.9,29.4,30.31,ESE,105,0.0,3.0,87,0.00,,,0.00,HR-IXPWINDi_r2_v1.2.,2013-02-22 08:38:00,
2013-02-22 03:44:00,32.6,29.7,30.32,East,84,1.0,3.0,89,0.00,,,0.00,HR-IXPWINDi_r2_v1.2.,2013-02-22 08:44:00,
2013-02-22 03:49:00,32.4,29.5,30.34,NNE,21,0.0,3.0,89,0.00,,,0.00,HR-IXPWINDi_r2_v1.2.,2013-02-22 08:49:00,
2013-02-22 03:54:00,32.3,29.7,30.36,NNE,22,0.0,3.0,90,0.00,,,0.00,HR-IXPWINDi_r2_v1.2.,2013-02-22 08:54:00,
2013-02-22 03:59:00,32.1,29.5,30.36,NNE,22,0.0,1.0,90,0.00,,,0.00,HR-IXPWINDi_r2_v1.2.,2013-02-22 08:59:00,
2013-02-22 04:04:00,32.1,29.7,30.33,NE,46,0.0,1.0,91,0.00,,,0.00,HR-IXPWINDi_r2_v1.2.,2013-02-22 09:04:00,
2013-02-22 04:09:00,32.0,29.6,30.33,NE,46,0.0,1.0,91,0.00,,,0.00,HR-IXPWINDi_r2_v1.2.,2013-02-22 09:09:00,
2013-02-22 04:14:00,31.9,29.5,30.32,NE,46,0.0,1.0,91,0.00,,,0.00,HR-IXPWINDi_r2_v1.2.,2013-02-22 09:14:00,
2013-02-22 04:20:00,31.9,29.5,30.32,NE,54,0.0,2.0,91,0.00,,,0.00,HR-IXPWINDi_r2_v1.2.,2013-02-22 09:20:00,
2013-02-22 04:25:00,31.9,29.5,30.32,NE,54,0.0,2.0,91,0.00,,,0.00,HR-IXPWINDi_r2_v1.2.,2013-02-22 09:25:00,
2013-02-22 04:30:00,31.9,29.5,30.33,NE,54,0.0,1.0,91,0.00,,,0.00,HR-IXPWINDi_r2_v1.2.,2013-02-22 09:30:00,
2013-02-22 04:35:00,31.9,29.5,30.33,ENE,61,1.0,2.0,91,0.00,,,0.00,HR-IXPWINDi_r2_v1.2.,2013-02-22 09:35:00,
2013-02-22 04:40:00,31.9,29.3,30.32,ESE,123,0.0,3.0,90,0.00,,,0.00,HR-IXPWINDi_r2_v1.2.,2013-02-22 09:40:00,
2013-02-22 04:45:00,31.9,29.3,30.31,ESE,112,0.0,3.0,90,0.00,,,0.00,HR-IXPWINDi_r2_v1.2.,2013-02-22 09:45:00,
2013-02-22 04:51:00,31.9,29.0,30.31,East,96,0.0,3.0,89,0.00,,,0.00,HR-IXPWINDi_r2_v1.2.,2013-02-22 09:51:00,
2013-02-22 04:56:00,31.9,29.0,30.31,ESE,107,1.0,3.0,89,0.00,,,0.00,HR-IXPWINDi_r2_v1.2.,2013-02-22 09:56:00,
2013-02-22 05:01:00,31.9,29.0,30.32,ESE,113,0.0,3.0,89,0.00,,,0.00,HR-IXPWINDi_r2_v1.2.,2013-02-22 10:01:00,
2013-02-22 05:06:00,31.9,29.0,30.31,ESE,117,0.0,3.0,89,0.00,,,0.00,HR-IXPWINDi_r2_v1.2.,2013-02-22 10:06:00,
2013-02-22 05:12:00,31.8,28.9,30.31,East,90,0.0,3.0,89,0.00,,,0.00,HR-IXPWINDi_r2_v1.2.,2013-02-22 10:12:00,
2013-02-22 05:17:00,31.7,28.8,30.31,East,100,3.0,3.0,89,0.00,,,0.00,HR-IXPWINDi_r2_v1.2.,2013-02-22 10:17:00,
2013-02-22 05:22:00,31.7,28.8,30.31,ESE,104,0.0,3.0,89,0.00,,,0.00,HR-IXPWINDi_r2_v1.2.,2013-02-22 10:22:00,
2013-02-22 05:27:00,31.6,28.7,30.31,East,89,0.0,2.0,89,0.00,,,0.00,HR-IXPWINDi_r2_v1.2.,2013-02-22 10:27:00,
2013-02-22 05:33:00,31.6,29.0,30.31,ESE,105,0.0,2.0,90,0.00,,,0.00,HR-IXPWINDi_r2_v1.2.,2013-02-22 10:33:00,
2013-02-22 05:38:00,31.7,29.4,30.32,ESE,105,0.0,2.0,91,0.00,,,0.00,HR-IXPWINDi_r2_v1.2.,2013-02-22 10:38:00,
2013-02-22 05:43:00,31.7,29.4,30.32,SE,128,0.0,1.0,91,0.00,,,0.00,HR-IXPWINDi_r2_v1.2.,2013-02-22 10:43:00,
2013-02-22 05:48:00,31.7,29.4,30.32,ESE,114,0.0,2.0,91,0.00,,,0.00,HR-IXPWINDi_r2_v1.2.,2013-02-22 10:48:00,
2013-02-22 05:53:00,31.6,29.3,30.32,ESE,114,0.0,2.0,91,0.00,,,0.00,HR-IXPWINDi_r2_v1.2.,2013-02-22 10:53:00,
2013-02-22 05:58:00,31.6,29.3,30.33,ESE,114,0.0,1.0,91,0.00,,,0.00,HR-IXPWINDi_r2_v1.2.,2013-02-22 10:58:00,
2013-02-22 06:03:00,31.6,29.3,30.32,ESE,114,0.0,0.0,91,0.00,,,0.00,HR-IXPWINDi_r2_v1.2.,2013-02-22 11:03:00,
2013-02-22 06:09:00,31.6,29.3,30.32,ESE,114,0.0,1.0,91,0.00,,,0.00,HR-IXPWINDi_r2_v1.2.,2013-02-22 11:09:00,
2013-02-22 06:14:00,31.5,29.4,30.31,ESE,105,1.0,1.0,92,0.00,,,0.00,HR-IXPWINDi_r2_v1.2.,2013-02-22 11:14:00,
2013-02-22 06:19:00,31.5,29.4,30.32,ESE,105,0.0,1.0,92,0.00,,,0.00,HR-IXPWINDi_r2_v1.2.,2013-02-22 11:19:00,
2013-02-22 06:24:00,31.4,29.3,30.32,ESE,123,0.0,2.0,92,0.00,,,0.00,HR-IXPWINDi_r2_v1.2.,2013-02-22 11:24:00,
2013-02-22 06:30:00,31.2,28.6,30.32,SSE,160,1.0,2.0,90,0.00,,,0.00,HR-IXPWINDi_r2_v1.2.,2013-02-22 11:30:00,
2013-02-22 06:35:00,31.0,28.4,30.33,SE,126,0.0,2.0,90,0.00,,,0.00,HR-IXPWINDi_r2_v1.2.,2013-02-22 11:35:00,
2013-02-22 06:40:00,30.8,27.9,30.33,East,100,0.0,2.0,89,0.00,,,0.00,HR-IXPWINDi_r2_v1.2.,2013-02-22 11:40:00,
2013-02-22 06:45:00,30.7,27.8,30.32,ESE,105,0.0,2.0,89,0.00,,,0.00,HR-IXPWINDi_r2_v1.2.,2013-02-22 11:45:00,
2013-02-22 06:50:00,30.7,27.8,30.32,East,98,0.0,1.0,89,0.00,,,0.00,HR-IXPWINDi_r2_v1.2.,2013-02-22 11:50:00,
2013-02-22 06:56:00,30.6,27.7,30.32,East,98,0.0,1.0,89,0.00,,,0.00,HR-IXPWINDi_r2_v1.2.,2013-02-22 11:56:00,
2013-02-22 07:01:00,30.7,28.1,30.32,East,98,0.0,1.0,90,0.00,,,0.00,HR-IXPWINDi_r2_v1.2.,2013-02-22 12:01:00,
2013-02-22 07:06:00,30.7,28.1,30.32,East,98,0.0,1.0,90,0.00,,,0.00,HR-IXPWINDi_r2_v1.2.,2013-02-22 12:06:00,
2013-02-22 07:11:00,30.7,28.1,30.33,East,98,0.0,1.0,90,0.00,,,0.00,HR-IXPWINDi_r2_v1.2.,2013-02-22 12:11:00,
2013-02-22 07:17:00,30.6,28.0,30.33,East,98,0.0,1.0,90,0.00,,,0.00,HR-IXPWINDi_r2_v1.2.,2013-02-22 12:17:00,
2013-02-22 07:22:00,30.6,28.3,30.33,East,80,0.0,1.0,91,0.00,,,0.00,HR-IXPWINDi_r2_v1.2.,2013-02-22 12:22:00,
2013-02-22 07:27:00,30.7,28.4,30.34,ENE,78,0.0,2.0,91,0.00,,,0.00,HR-IXPWINDi_r2_v1.2.,2013-02-22 12:27:00,
2013-02-22 07:32:00,30.7,28.4,30.34,ESE,113,0.0,2.0,91,0.00,,,0.00,HR-IXPWINDi_r2_v1.2.,2013-02-22 12:32:00,
2013-02-22 07:37:00,30.7,27.8,30.33,East,79,0.0,2.0,89,0.00,,,0.00,HR-IXPWINDi_r2_v1.2.,2013-02-22 12:37:00,
2013-02-22 07:43:00,30.7,27.8,30.34,SE,136,0.0,2.0,89,0.00,,,0.00,HR-IXPWINDi_r2_v1.2.,2013-02-22 12:43:00,
2013-02-22 07:48:00,30.6,27.2,30.34,ESE,106,0.0,2.0,87,0.00,,,0.00,HR-IXPWINDi_r2_v1.2.,2013-02-22 12:48:00,
2013-02-22 07:53:00,30.6,27.2,30.34,ESE,108,0.0,2.0,87,0.00,,,0.00,HR-IXPWINDi_r2_v1.2.,2013-02-22 12:53:00,
2013-02-22 07:58:00,30.6,27.5,30.34,East,100,0.0,2.0,88,0.00,,,0.00,HR-IXPWINDi_r2_v1.2.,2013-02-22 12:58:00,
2013-02-22 08:03:00,30.6,27.5,30.34,ESE,103,0.0,2.0,88,0.00,,,0.00,HR-IXPWINDi_r2_v1.2.,2013-02-22 13:03:00,
2013-02-22 08:08:00,30.6,27.2,30.33,ESE,103,0.0,2.0,87,0.00,,,0.00,HR-IXPWINDi_r2_v1.2.,2013-02-22 13:08:00,
2013-02-22 08:13:00,30.6,27.5,30.33,ESE,103,0.0,1.0,88,0.00,,,0.00,HR-IXPWINDi_r2_v1.2.,2013-02-22 13:13:00,
2013-02-22 08:19:00,30.6,27.5,30.34,ESE,105,0.0,2.0,88,0.00,,,0.00,HR-IXPWINDi_r2_v1.2.,2013-02-22 13:19:00,
2013-02-22 08:24:00,30.7,27.3,30.34,ESE,113,0.0,2.0,87,0.00,,,0.00,HR-IXPWINDi_r2_v1.2.,2013-02-22 13:24:00,
2013-02-22 08:29:00,30.7,27.0,30.34,ESE,113,0.0,2.0,86,0.00,,,0.00,HR-IXPWINDi_r2_v1.2.,2013-02-22 13:29:00,
2013-02-22 08:34:00,30.7,27.3,30.34,ESE,113,0.0,2.0,87,0.00,,,0.00,HR-IXPWINDi_r2_v1.2.,2013-02-22 13:34:00,
2013-02-22 08:40:00,30.8,27.4,30.35,ESE,122,0.0,1.0,87,0.00,,,0.00,HR-IXPWINDi_r2_v1.2.,2013-02-22 13:40:00,
2013-02-22 08:45:00,30.8,27.4,30.35,ESE,122,0.0,1.0,87,0.00,,,0.00,HR-IXPWINDi_r2_v1.2.,2013-02-22 13:45:00,
2013-02-22 08:50:00,30.8,27.4,30.35,ESE,105,0.0,2.0,87,0.00,,,0.00,HR-IXPWINDi_r2_v1.2.,2013-02-22 13:50:00,
2013-02-22 08:56:00,30.9,27.5,30.35,ESE,105,0.0,2.0,87,0.00,,,0.00,HR-IXPWINDi_r2_v1.2.,2013-02-22 13:56:00,
2013-02-22 09:01:00,31.0,27.6,30.35,ESE,119,1.0,2.0,87,0.00,,,0.00,HR-IXPWINDi_r2_v1.2.,2013-02-22 14:01:00,
2013-02-22 09:06:00,31.0,27.6,30.35,ESE,118,2.0,3.0,87,0.00,,,0.00,HR-IXPWINDi_r2_v1.2.,2013-02-22 14:06:00,
2013-02-22 09:11:00,31.1,27.7,30.35,ESE,108,1.0,3.0,87,0.00,,,0.00,HR-IXPWINDi_r2_v1.2.,2013-02-22 14:11:00,
2013-02-22 09:16:00,31.2,27.8,30.35,ESE,109,0.0,3.0,87,0.00,,,0.00,HR-IXPWINDi_r2_v1.2.,2013-02-22 14:16:00,
2013-02-22 09:22:00,31.2,27.5,30.35,ESE,109,0.0,2.0,86,0.00,,,0.00,HR-IXPWINDi_r2_v1.2.,2013-02-22 14:22:00,
2013-02-22 09:27:00,31.2,27.8,30.35,ESE,109,1.0,1.0,87,0.00,,,0.00,HR-IXPWINDi_r2_v1.2.,2013-02-22 14:27:00,
2013-02-22 09:32:00,31.2,27.5,30.34,East,92,1.0,2.0,86,0.00,,,0.00,HR-IXPWINDi_r2_v1.2.,2013-02-22 14:32:00,
2013-02-22 09:37:00,31.2,27.2,30.34,ESE,120,0.0,2.0,85,0.00,,,0.00,HR-IXPWINDi_r2_v1.2.,2013-02-22 14:37:00,
2013-02-22 09:42:00,31.2,27.5,30.33,ESE,120,0.0,2.0,86,0.00,,,0.00,HR-IXPWINDi_r2_v1.2.,2013-02-22 14:42:00,
2013-02-22 09:48:00,31.3,27.9,30.33,East,90,1.0,2.0,87,0.00,,,0.00,HR-IXPWINDi_r2_v1.2.,2013-02-22 14:48:00,
2013-02-22 09:53:00,31.4,27.7,30.33,ESE,117,0.0,2.0,86,0.00,,,0.00,HR-IXPWINDi_r2_v1.2.,2013-02-22 14:53:00,
2013-02-22 09:58:00,31.5,27.8,30.32,ESE,105,0.0,2.0,86,0.00,,,0.00,HR-IXPWINDi_r2_v1.2.,2013-02-22 14:58:00,
2013-02-22 10:03:00,31.7,28.0,30.33,SE,139,0.0,3.0,86,0.00,,,0.00,HR-IXPWINDi_r2_v1.2.,2013-02-22 15:03:00,
2013-02-22 10:08:00,31.7,27.7,30.33,East,91,0.0,3.0,85,0.00,,,0.00,HR-IXPWINDi_r2_v1.2.,2013-02-22 15:08:00,
2013-02-22 10:14:00,31.8,27.8,30.32,East,91,0.0,2.0,85,0.00,,,0.00,HR-IXPWINDi_r2_v1.2.,2013-02-22 15:14:00,
2013-02-22 10:19:00,31.9,27.6,30.32,ESE,118,0.0,2.0,84,0.00,,,0.00,HR-IXPWINDi_r2_v1.2.,2013-02-22 15:19:00,
2013-02-22 10:24:00,31.9,27.6,30.32,ESE,118,0.0,2.0,84,0.00,,,0.00,HR-IXPWINDi_r2_v1.2.,2013-02-22 15:24:00,
2013-02-22 10:29:00,31.9,27.3,30.32,ESE,118,0.0,1.0,83,0.00,,,0.00,HR-IXPWINDi_r2_v1.2.,2013-02-22 15:29:00,
2013-02-22 10:35:00,31.8,27.2,30.32,East,90,0.0,2.0,83,0.00,,,0.00,HR-IXPWINDi_r2_v1.2.,2013-02-22 15:35:00,
2013-02-22 10:40:00,31.9,27.3,30.32,East,90,0.0,2.0,83,0.00,,,0.00,HR-IXPWINDi_r2_v1.2.,2013-02-22 15:40:00,
2013-02-22 10:45:00,32.0,27.4,30.32,East,90,0.0,1.0,83,0.00,,,0.00,HR-IXPWINDi_r2_v1.2.,2013-02-22 15:45:00,
2013-02-22 10:50:00,32.2,27.9,30.32,ESE,107,0.0,3.0,84,0.00,,,0.00,HR-IXPWINDi_r2_v1.2.,2013-02-22 15:50:00,
2013-02-22 10:55:00,32.4,27.8,30.32,ESE,107,0.0,3.0,83,0.00,,,0.00,HR-IXPWINDi_r2_v1.2.,2013-02-22 15:55:00,
2013-02-22 11:01:00,32.6,27.7,30.32,SE,124,0.0,3.0,82,0.00,,,0.00,HR-IXPWINDi_r2_v1.2.,2013-02-22 16:01:00,
2013-02-22 11:06:00,32.8,28.5,30.32,SE,124,0.0,3.0,84,0.00,,,0.01,HR-IXPWINDi_r2_v1.2.,2013-02-22 16:06:00,
2013-02-22 11:11:00,33.0,28.1,30.32,ESE,113,1.0,2.0,82,0.00,,,0.01,HR-IXPWINDi_r2_v1.2.,2013-02-22 16:11:00,
2013-02-22 11:16:00,33.2,28.6,30.32,ESE,106,1.0,2.0,83,0.00,,,0.01,HR-IXPWINDi_r2_v1.2.,2013-02-22 16:16:00,
2013-02-22 11:21:00,33.3,28.7,30.32,ESE,107,0.0,2.0,83,0.00,,,0.02,HR-IXPWINDi_r2_v1.2.,2013-02-22 16:21:00,
2013-02-22 11:27:00,33.3,28.1,30.32,ESE,108,0.0,3.0,81,0.00,,,0.02,HR-IXPWINDi_r2_v1.2.,2013-02-22 16:27:00,
2013-02-22 11:32:00,33.2,28.6,30.32,ESE,107,1.0,3.0,83,0.00,,,0.02,HR-IXPWINDi_r2_v1.2.,2013-02-22 16:32:00,
2013-02-22 11:37:00,33.2,28.6,30.31,ESE,115,0.0,3.0,83,0.04,,,0.03,HR-IXPWINDi_r2_v1.2.,2013-02-22 16:37:00,
2013-02-22 11:42:00,33.4,29.4,30.31,ESE,115,1.0,3.0,85,0.04,,,0.03,HR-IXPWINDi_r2_v1.2.,2013-02-22 16:42:00,
2013-02-22 11:48:00,33.7,29.4,30.31,East,88,0.0,2.0,84,0.04,,,0.03,HR-IXPWINDi_r2_v1.2.,2013-02-22 16:48:00,
2013-02-22 11:53:00,33.9,29.6,30.31,ESE,112,1.0,2.0,84,0.00,,,0.03,HR-IXPWINDi_r2_v1.2.,2013-02-22 16:53:00,
2013-02-22 11:58:00,34.1,29.5,30.31,ESE,110,0.0,3.0,83,0.00,,,0.03,HR-IXPWINDi_r2_v1.2.,2013-02-22 16:58:00,
2013-02-22 12:04:00,34.3,30.2,30.31,ESE,109,0.0,3.0,85,0.00,,,0.03,HR-IXPWINDi_r2_v1.2.,2013-02-22 17:04:00,
2013-02-22 12:09:00,34.5,29.8,30.31,ESE,109,1.0,2.0,83,0.00,,,0.03,HR-IXPWINDi_r2_v1.2.,2013-02-22 17:09:00,
2013-02-22 12:14:00,34.7,30.3,30.31,ESE,109,0.0,2.0,84,0.00,,,0.04,HR-IXPWINDi_r2_v1.2.,2013-02-22 17:14:00,
2013-02-22 12:19:00,34.6,29.3,30.31,ESE,113,1.0,3.0,81,0.00,,,0.04,HR-IXPWINDi_r2_v1.2.,2013-02-22 17:19:00,
2013-02-22 12:24:00,34.7,30.0,30.30,North,355,0.0,3.0,83,0.00,,,0.04,HR-IXPWINDi_r2_v1.2.,2013-02-22 17:24:00,
2013-02-22 12:29:00,34.8,29.8,30.30,SE,140,1.0,2.0,82,0.00,,,0.04,HR-IXPWINDi_r2_v1.2.,2013-02-22 17:29:00,
2013-02-22 12:34:00,34.7,29.7,30.30,NNW,333,0.0,2.0,82,0.00,,,0.04,HR-IXPWINDi_r2_v1.2.,2013-02-22 17:34:00,
2013-02-22 12:40:00,34.6,29.9,30.30,ESE,103,2.0,2.0,83,0.00,,,0.04,HR-IXPWINDi_r2_v1.2.,2013-02-22 17:40:00,
2013-02-22 12:45:00,34.6,29.6,30.30,East,94,0.0,2.0,82,0.00,,,0.05,HR-IXPWINDi_r2_v1.2.,2013-02-22 17:45:00,
2013-02-22 12:50:00,34.6,29.3,30.29,NW,313,0.0,2.0,81,0.00,,,0.05,HR-IXPWINDi_r2_v1.2.,2013-02-22 17:50:00,
2013-02-22 12:55:00,34.6,29.6,30.29,North,355,0.0,2.0,82,0.00,,,0.05,HR-IXPWINDi_r2_v1.2.,2013-02-22 17:55:00,
2013-02-22 13:01:00,34.7,30.0,30.28,East,98,0.0,2.0,83,0.00,,,0.05,HR-IXPWINDi_r2_v1.2.,2013-02-22 18:01:00,
2013-02-22 13:06:00,34.6,29.3,30.28,SE,136,0.0,6.0,81,0.00,,,0.05,HR-IXPWINDi_r2_v1.2.,2013-02-22 18:06:00,
2013-02-22 13:11:00,34.7,29.4,30.28,ESE,112,0.0,6.0,81,0.00,,,0.05,HR-IXPWINDi_r2_v1.2.,2013-02-22 18:11:00,
2013-02-22 13:16:00,34.7,29.4,30.27,East,93,0.0,3.0,81,0.00,,,0.05,HR-IXPWINDi_r2_v1.2.,2013-02-22 18:16:00,
2013-02-22 13:21:00,34.9,29.6,30.28,East,93,2.0,3.0,81,0.00,,,0.05,HR-IXPWINDi_r2_v1.2.,2013-02-22 18:21:00,
2013-02-22 13:26:00,35.1,29.8,30.28,NW,316,0.0,2.0,81,0.00,,,0.05,HR-IXPWINDi_r2_v1.2.,2013-02-22 18:26:00,
2013-02-22 13:31:00,35.3,30.3,30.27,ENE,65,0.0,2.0,82,0.00,,,0.05,HR-IXPWINDi_r2_v1.2.,2013-02-22 18:31:00,
2013-02-22 13:37:00,35.6,30.3,30.27,ESE,117,3.0,3.0,81,0.00,,,0.05,HR-IXPWINDi_r2_v1.2.,2013-02-22 18:37:00,
2013-02-22 13:42:00,35.8,29.6,30.27,SSE,162,0.0,4.0,78,0.00,,,0.05,HR-IXPWINDi_r2_v1.2.,2013-02-22 18:42:00,
2013-02-22 13:47:00,35.9,30.3,30.27,East,92,1.0,4.0,80,0.00,,,0.05,HR-IXPWINDi_r2_v1.2.,2013-02-22 18:47:00,
2013-02-22 13:52:00,36.0,30.1,30.27,East,92,2.0,3.0,79,0.00,,,0.05,HR-IXPWINDi_r2_v1.2.,2013-02-22 18:52:00,
2013-02-22 13:58:00,36.0,29.5,30.26,ESE,104,0.0,6.0,77,0.00,,,0.05,HR-IXPWINDi_r2_v1.2.,2013-02-22 18:58:00,
2013-02-22 14:03:00,36.1,30.2,30.26,SE,131,0.0,6.0,79,0.00,,,0.05,HR-IXPWINDi_r2_v1.2.,2013-02-22 19:03:00,
2013-02-22 14:08:00,36.2,29.3,30.26,South,169,0.0,3.0,76,0.00,,,0.05,HR-IXPWINDi_r2_v1.2.,2013-02-22 19:08:00,
2013-02-22 14:13:00,36.3,29.8,30.26,ESE,102,1.0,5.0,77,0.00,,,0.05,HR-IXPWINDi_r2_v1.2.,2013-02-22 19:13:00,
2013-02-22 14:18:00,36.4,30.2,30.26,ESE,106,1.0,5.0,78,0.00,,,0.05,HR-IXPWINDi_r2_v1.2.,2013-02-22 19:18:00,
2013-02-22 14:24:00,36.6,30.7,30.26,ESE,120,0.0,3.0,79,0.00,,,0.06,HR-IXPWINDi_r2_v1.2.,2013-02-22 19:24:00,
2013-02-22 14:29:00,36.9,30.7,30.26,ESE,121,0.0,2.0,78,0.00,,,0.06,HR-IXPWINDi_r2_v1.2.,2013-02-22 19:29:00,
2013-02-22 14:34:00,36.9,30.3,30.25,East,90,0.0,3.0,77,0.00,,,0.06,HR-IXPWINDi_r2_v1.2.,2013-02-22 19:34:00,
2013-02-22 14:39:00,36.8,30.2,30.25,ESE,103,1.0,3.0,77,0.00,,,0.06,HR-IXPWINDi_r2_v1.2.,2013-02-22 19:39:00,
2013-02-22 14:44:00,36.8,30.2,30.26,ENE,63,0.0,3.0,77,0.00,,,0.06,HR-IXPWINDi_r2_v1.2.,2013-02-22 19:44:00,
2013-02-22 14:49:00,37.0,30.8,30.26,East,82,0.0,2.0,78,0.00,,,0.06,HR-IXPWINDi_r2_v1.2.,2013-02-22 19:49:00,
2013-02-22 14:54:00,37.1,30.9,30.26,East,82,0.0,2.0,78,0.00,,,0.06,HR-IXPWINDi_r2_v1.2.,2013-02-22 19:54:00,
2013-02-22 15:00:00,37.2,30.9,30.25,SE,126,1.0,2.0,78,0.00,,,0.06,HR-IXPWINDi_r2_v1.2.,2013-02-22 20:00:00,
2013-02-22 15:05:00,37.3,31.4,30.26,East,86,0.0,2.0,79,0.00,,,0.06,HR-IXPWINDi_r2_v1.2.,2013-02-22 20:05:00,
2013-02-22 15:10:00,37.4,31.5,30.26,ESE,117,1.0,2.0,79,0.00,,,0.06,HR-IXPWINDi_r2_v1.2.,2013-02-22 20:10:00,
2013-02-22 15:15:00,37.2,31.3,30.25,ENE,74,0.0,4.0,79,0.00,,,0.06,HR-IXPWINDi_r2_v1.2.,2013-02-22 20:15:00,
2013-02-22 15:20:00,37.2,31.3,30.26,ENE,78,1.0,4.0,79,0.00,,,0.06,HR-IXPWINDi_r2_v1.2.,2013-02-22 20:20:00,
2013-02-22 15:25:00,37.1,30.9,30.26,ENE,78,0.0,1.0,78,0.00,,,0.06,HR-IXPWINDi_r2_v1.2.,2013-02-22 20:25:00,
2013-02-22 15:31:00,37.1,31.2,30.25,SE,125,3.0,3.0,79,0.00,,,0.06,HR-IXPWINDi_r2_v1.2.,2013-02-22 20:31:00,
2013-02-22 15:36:00,36.9,30.7,30.25,ESE,123,1.0,3.0,78,0.00,,,0.06,HR-IXPWINDi_r2_v1.2.,2013-02-22 20:36:00,
2013-02-22 15:41:00,36.8,30.6,30.25,East,88,0.0,3.0,78,0.00,,,0.06,HR-IXPWINDi_r2_v1.2.,2013-02-22 20:41:00,
2013-02-22 15:46:00,36.8,30.6,30.25,SE,126,2.0,3.0,78,0.00,,,0.06,HR-IXPWINDi_r2_v1.2.,2013-02-22 20:46:00,
2013-02-22 15:51:00,36.8,30.6,30.25,ESE,121,0.0,3.0,78,0.00,,,0.06,HR-IXPWINDi_r2_v1.2.,2013-02-22 20:51:00,
2013-02-22 15:57:00,36.8,30.6,30.25,ESE,122,0.0,3.0,78,0.00,,,0.06,HR-IXPWINDi_r2_v1.2.,2013-02-22 20:57:00,
2013-02-22 16:02:00,36.8,30.6,30.25,ESE,122,0.0,3.0,78,0.00,,,0.06,HR-IXPWINDi_r2_v1.2.,2013-02-22 21:02:00,
2013-02-22 16:07:00,36.8,30.9,30.24,SE,140,0.0,1.0,79,0.00,,,0.06,HR-IXPWINDi_r2_v1.2.,2013-02-22 21:07:00,
2013-02-22 16:12:00,36.9,30.7,30.24,ESE,123,1.0,3.0,78,0.00,,,0.06,HR-IXPWINDi_r2_v1.2.,2013-02-22 21:12:00,
2013-02-22 16:17:00,36.9,30.7,30.24,ESE,119,2.0,5.0,78,0.00,,,0.06,HR-IXPWINDi_r2_v1.2.,2013-02-22 21:17:00,
2013-02-22 16:23:00,36.8,30.9,30.25,ESE,119,1.0,5.0,79,0.00,,,0.06,HR-IXPWINDi_r2_v1.2.,2013-02-22 21:23:00,
2013-02-22 16:28:00,36.8,30.9,30.25,ESE,119,0.0,3.0,79,0.00,,,0.06,HR-IXPWINDi_r2_v1.2.,2013-02-22 21:28:00,
2013-02-22 16:33:00,36.7,30.8,30.24,SE,129,1.0,3.0,79,0.00,,,0.06,HR-IXPWINDi_r2_v1.2.,2013-02-22 21:33:00,
2013-02-22 16:38:00,36.7,30.8,30.25,SE,129,0.0,2.0,79,0.00,,,0.06,HR-IXPWINDi_r2_v1.2.,2013-02-22 21:38:00,
2013-02-22 16:43:00,36.6,30.7,30.25,SE,128,0.0,2.0,79,0.00,,,0.06,HR-IXPWINDi_r2_v1.2.,2013-02-22 21:43:00,
2013-02-22 16:49:00,36.6,30.7,30.24,SE,128,1.0,2.0,79,0.00,,,0.06,HR-IXPWINDi_r2_v1.2.,2013-02-22 21:49:00,
2013-02-22 16:54:00,36.6,30.7,30.25,ESE,120,0.0,2.0,79,0.00,,,0.06,HR-IXPWINDi_r2_v1.2.,2013-02-22 21:54:00,
2013-02-22 16:59:00,36.6,30.7,30.25,ESE,120,0.0,2.0,79,0.00,,,0.06,HR-IXPWINDi_r2_v1.2.,2013-02-22 21:59:00,
2013-02-22 17:04:00,36.6,30.7,30.25,ESE,120,0.0,1.0,79,0.00,,,0.06,HR-IXPWINDi_r2_v1.2.,2013-02-22 22:04:00,
2013-02-22 17:09:00,36.5,30.3,30.25,ESE,115,0.0,3.0,78,0.00,,,0.06,HR-IXPWINDi_r2_v1.2.,2013-02-22 22:09:00,
2013-02-22 17:15:00,36.5,30.6,30.25,East,94,0.0,3.0,79,0.00,,,0.06,HR-IXPWINDi_r2_v1.2.,2013-02-22 22:15:00,
2013-02-22 17:20:00,36.4,30.5,30.24,East,86,0.0,3.0,79,0.00,,,0.06,HR-IXPWINDi_r2_v1.2.,2013-02-22 22:20:00,
2013-02-22 17:25:00,36.4,30.8,30.24,East,96,0.0,3.0,80,0.00,,,0.06,HR-IXPWINDi_r2_v1.2.,2013-02-22 22:25:00,
2013-02-22 17:30:00,36.3,31.0,30.24,ESE,119,1.0,3.0,81,0.00,,,0.06,HR-IXPWINDi_r2_v1.2.,2013-02-22 22:30:00,
2013-02-22 17:36:00,36.2,30.6,30.23,ESE,108,0.0,6.0,80,0.00,,,0.06,HR-IXPWINDi_r2_v1.2.,2013-02-22 22:36:00,
2013-02-22 17:41:00,36.2,30.9,30.24,ESE,105,0.0,6.0,81,0.00,,,0.06,HR-IXPWINDi_r2_v1.2.,2013-02-22 22:41:00,
2013-02-22 17:46:00,36.1,30.8,30.24,East,98,2.0,3.0,81,0.00,,,0.06,HR-IXPWINDi_r2_v1.2.,2013-02-22 22:46:00,
2013-02-22 17:51:00,36.1,31.1,30.24,East,91,0.0,3.0,82,0.00,,,0.06,HR-IXPWINDi_r2_v1.2.,2013-02-22 22:51:00,
2013-02-22 17:57:00,36.0,31.0,30.23,ESE,109,2.0,3.0,82,0.00,,,0.06,HR-IXPWINDi_r2_v1.2.,2013-02-22 22:57:00,
2013-02-22 18:02:00,36.0,31.0,30.24,ESE,109,0.0,3.0,82,0.00,,,0.06,HR-IXPWINDi_r2_v1.2.,2013-02-22 23:02:00,
2013-02-22 18:07:00,35.9,30.9,30.24,East,99,1.0,3.0,82,0.00,,,0.06,HR-IXPWINDi_r2_v1.2.,2013-02-22 23:07:00,
2013-02-22 18:12:00,35.9,31.2,30.24,ESE,115,2.0,3.0,83,0.00,,,0.06,HR-IXPWINDi_r2_v1.2.,2013-02-22 23:12:00,
2013-02-22 18:18:00,35.9,31.2,30.24,East,84,0.0,3.0,83,0.00,,,0.06,HR-IXPWINDi_r2_v1.2.,2013-02-22 23:18:00,
2013-02-22 18:23:00,35.8,30.8,30.24,East,88,1.0,3.0,82,0.00,,,0.06,HR-IXPWINDi_r2_v1.2.,2013-02-22 23:23:00,
2013-02-22 18:28:00,35.8,31.1,30.25,SE,125,1.0,3.0,83,0.00,,,0.06,HR-IXPWINDi_r2_v1.2.,2013-02-22 23:28:00,
2013-02-22 18:33:00,35.7,31.3,30.24,SE,125,0.0,3.0,84,0.00,,,0.06,HR-IXPWINDi_r2_v1.2.,2013-02-22 23:33:00,
2013-02-22 18:38:00,35.7,31.3,30.25,SE,125,0.0,1.0,84,0.00,,,0.06,HR-IXPWINDi_r2_v1.2.,2013-02-22 23:38:00,
2013-02-22 18:44:00,35.7,31.3,30.25,SE,125,1.0,1.0,84,0.00,,,0.06,HR-IXPWINDi_r2_v1.2.,2013-02-22 23:44:00,
2013-02-22 18:49:00,35.6,31.2,30.24,ESE,112,0.0,2.0,84,0.00,,,0.06,HR-IXPWINDi_r2_v1.2.,2013-02-22 23:49:00,
2013-02-22 18:54:00,35.6,31.5,30.24,ESE,109,2.0,5.0,85,0.00,,,0.06,HR-IXPWINDi_r2_v1.2.,2013-02-22 23:54:00,
2013-02-22 18:59:00,35.5,31.4,30.24,ESE,102,1.0,5.0,85,0.00,,,0.06,HR-IXPWINDi_r2_v1.2.,2013-02-22 23:59:00,
2013-02-22 19:04:00,35.5,31.4,30.24,East,101,1.0,5.0,85,0.00,,,0.06,HR-IXPWINDi_r2_v1.2.,2013-02-23 00:04:00,
2013-02-22 19:10:00,35.5,31.4,30.24,ESE,109,1.0,4.0,85,0.00,,,0.06,HR-IXPWINDi_r2_v1.2.,2013-02-23 00:10:00,
2013-02-22 19:15:00,35.5,31.4,30.24,SE,127,1.0,2.0,85,0.00,,,0.06,HR-IXPWINDi_r2_v1.2.,2013-02-23 00:15:00,
2013-02-22 19:20:00,35.4,31.3,30.24,East,85,1.0,5.0,85,0.00,,,0.06,HR-IXPWINDi_r2_v1.2.,2013-02-23 00:20:00,
2013-02-22 19:25:00,35.4,31.3,30.24,ESE,113,0.0,5.0,85,0.00,,,0.06,HR-IXPWINDi_r2_v1.2.,2013-02-23 00:25:00,
2013-02-22 19:30:00,35.4,31.3,30.24,ESE,102,2.0,5.0,85,0.00,,,0.06,HR-IXPWINDi_r2_v1.2.,2013-02-23 00:30:00,
2013-02-22 19:36:00,35.3,31.2,30.23,ESE,109,0.0,5.0,85,0.00,,,0.06,HR-IXPWINDi_r2_v1.2.,2013-02-23 00:36:00,
2013-02-22 19:41:00,35.4,31.3,30.24,ESE,107,0.0,3.0,85,0.00,,,0.06,HR-IXPWINDi_r2_v1.2.,2013-02-23 00:41:00,
2013-02-22 19:46:00,35.3,31.2,30.23,ESE,107,0.0,2.0,85,0.00,,,0.06,HR-IXPWINDi_r2_v1.2.,2013-02-23 00:46:00,
2013-02-22 19:51:00,35.3,31.2,30.22,ESE,107,0.0,2.0,85,0.00,,,0.06,HR-IXPWINDi_r2_v1.2.,2013-02-23 00:51:00,
2013-02-22 19:57:00,35.3,31.2,30.23,ESE,106,3.0,3.0,85,0.00,,,0.06,HR-IXPWINDi_r2_v1.2.,2013-02-23 00:57:00,
2013-02-22 20:02:00,35.2,31.1,30.23,ESE,113,0.0,3.0,85,0.00,,,0.06,HR-IXPWINDi_r2_v1.2.,2013-02-23 01:02:00,
2013-02-22 20:07:00,35.2,31.1,30.23,ESE,113,0.0,3.0,85,0.00,,,0.06,HR-IXPWINDi_r2_v1.2.,2013-02-23 01:07:00,
2013-02-22 20:12:00,35.1,31.3,30.23,ESE,112,1.0,2.0,86,0.00,,,0.06,HR-IXPWINDi_r2_v1.2.,2013-02-23 01:12:00,
2013-02-22 20:18:00,35.1,31.3,30.23,ESE,113,0.0,2.0,86,0.00,,,0.06,HR-IXPWINDi_r2_v1.2.,2013-02-23 01:18:00,
2013-02-22 20:23:00,35.1,31.3,30.23,ESE,113,0.0,2.0,86,0.00,,,0.06,HR-IXPWINDi_r2_v1.2.,2013-02-23 01:23:00,
2013-02-22 20:28:00,35.1,31.3,30.23,ESE,113,2.0,2.0,86,0.00,,,0.06,HR-IXPWINDi_r2_v1.2.,2013-02-23 01:28:00,
2013-02-22 20:33:00,35.1,31.3,30.24,ESE,105,0.0,3.0,86,0.00,,,0.06,HR-IXPWINDi_r2_v1.2.,2013-02-23 01:33:00,
2013-02-22 20:38:00,35.0,31.2,30.24,ESE,103,2.0,3.0,86,0.00,,,0.06,HR-IXPWINDi_r2_v1.2.,2013-02-23 01:38:00,
2013-02-22 20:44:00,35.0,31.2,30.23,ESE,103,0.0,2.0,86,0.00,,,0.06,HR-IXPWINDi_r2_v1.2.,2013-02-23 01:44:00,
2013-02-22 20:49:00,35.0,31.2,30.24,ENE,67,1.0,5.0,86,0.00,,,0.06,HR-IXPWINDi_r2_v1.2.,2013-02-23 01:49:00,
2013-02-22 20:54:00,35.0,31.5,30.23,ESE,118,0.0,5.0,87,0.00,,,0.06,HR-IXPWINDi_r2_v1.2.,2013-02-23 01:54:00,
2013-02-22 20:59:00,35.0,31.5,30.23,ESE,102,1.0,4.0,87,0.00,,,0.06,HR-IXPWINDi_r2_v1.2.,2013-02-23 01:59:00,
2013-02-22 21:04:00,34.9,31.7,30.23,ESE,102,0.0,2.0,88,0.00,,,0.06,HR-IXPWINDi_r2_v1.2.,2013-02-23 02:04:00,
2013-02-22 21:09:00,34.9,31.7,30.23,East,98,0.0,2.0,88,0.00,,,0.06,HR-IXPWINDi_r2_v1.2.,2013-02-23 02:09:00,
2013-02-22 21:15:00,34.8,31.6,30.23,ESE,107,2.0,3.0,88,0.00,,,0.06,HR-IXPWINDi_r2_v1.2.,2013-02-23 02:15:00,
2013-02-22 21:20:00,34.8,31.6,30.23,ESE,106,1.0,4.0,88,0.00,,,0.06,HR-IXPWINDi_r2_v1.2.,2013-02-23 02:20:00,
2013-02-22 21:25:00,34.8,31.6,30.23,East,90,0.0,4.0,88,0.00,,,0.06,HR-IXPWINDi_r2_v1.2.,2013-02-23 02:25:00,
2013-02-22 21:30:00,34.8,31.6,30.23,East,101,0.0,3.0,88,0.00,,,0.06,HR-IXPWINDi_r2_v1.2.,2013-02-23 02:30:00,
2013-02-22 21:36:00,34.7,31.5,30.23,East,92,0.0,3.0,88,0.00,,,0.06,HR-IXPWINDi_r2_v1.2.,2013-02-23 02:36:00,
2013-02-22 21:41:00,34.7,31.8,30.23,East,98,2.0,3.0,89,0.00,,,0.06,HR-IXPWINDi_r2_v1.2.,2013-02-23 02:41:00,
2013-02-22 21:46:00,34.7,31.5,30.23,East,95,0.0,5.0,88,0.00,,,0.06,HR-IXPWINDi_r2_v1.2.,2013-02-23 02:46:00,
2013-02-22 21:51:00,34.8,31.6,30.23,East,97,0.0,5.0,88,0.00,,,0.06,HR-IXPWINDi_r2_v1.2.,2013-02-23 02:51:00,
2013-02-22 21:56:00,34.8,31.6,30.23,East,98,0.0,1.0,88,0.00,,,0.06,HR-IXPWINDi_r2_v1.2.,2013-02-23 02:56:00,
2013-02-22 22:02:00,34.8,31.6,30.24,East,98,0.0,1.0,88,0.00,,,0.06,HR-IXPWINDi_r2_v1.2.,2013-02-23 03:02:00,
2013-02-22 22:07:00,34.8,31.6,30.23,ESE,102,0.0,3.0,88,0.00,,,0.06,HR-IXPWINDi_r2_v1.2.,2013-02-23 03:07:00,
2013-02-22 22:12:00,34.8,31.6,30.23,ESE,102,0.0,3.0,88,0.00,,,0.06,HR-IXPWINDi_r2_v1.2.,2013-02-23 03:12:00,
2013-02-22 22:17:00,34.8,31.6,30.24,ESE,107,0.0,1.0,88,0.00,,,0.06,HR-IXPWINDi_r2_v1.2.,2013-02-23 03:17:00,
2013-02-22 22:22:00,34.8,31.6,30.24,ESE,107,0.0,1.0,88,0.00,,,0.06,HR-IXPWINDi_r2_v1.2.,2013-02-23 03:22:00,
2013-02-22 22:27:00,34.7,31.5,30.24,ESE,107,0.0,1.0,88,0.00,,,0.06,HR-IXPWINDi_r2_v1.2.,2013-02-23 03:27:00,
2013-02-22 22:32:00,34.8,31.6,30.23,East,94,0.0,2.0,88,0.00,,,0.06,HR-IXPWINDi_r2_v1.2.,2013-02-23 03:32:00,
2013-02-22 22:37:00,34.8,31.6,30.24,East,88,0.0,2.0,88,0.00,,,0.06,HR-IXPWINDi_r2_v1.2.,2013-02-23 03:37:00,
2013-02-22 22:43:00,34.8,31.6,30.23,ESE,102,3.0,3.0,88,0.00,,,0.06,HR-IXPWINDi_r2_v1.2.,2013-02-23 03:43:00,
2013-02-22 22:48:00,34.8,31.6,30.23,East,93,1.0,3.0,88,0.00,,,0.06,HR-IXPWINDi_r2_v1.2.,2013-02-23 03:48:00,
2013-02-22 22:53:00,34.8,31.6,30.23,East,93,0.0,3.0,88,0.00,,,0.06,HR-IXPWINDi_r2_v1.2.,2013-02-23 03:53:00,
2013-02-22 22:58:00,34.7,31.5,30.23,ESE,107,0.0,3.0,88,0.00,,,0.06,HR-IXPWINDi_r2_v1.2.,2013-02-23 03:58:00,
2013-02-22 23:03:00,34.7,31.5,30.23,ESE,107,0.0,3.0,88,0.00,,,0.06,HR-IXPWINDi_r2_v1.2.,2013-02-23 04:03:00,
2013-02-22 23:09:00,34.7,31.8,30.22,ESE,107,0.0,1.0,89,0.00,,,0.06,HR-IXPWINDi_r2_v1.2.,2013-02-23 04:09:00,
2013-02-22 23:14:00,34.7,31.8,30.22,ESE,107,0.0,1.0,89,0.00,,,0.06,HR-IXPWINDi_r2_v1.2.,2013-02-23 04:14:00,
2013-02-22 23:19:00,34.7,31.8,30.21,ESE,107,0.0,1.0,89,0.00,,,0.06,HR-IXPWINDi_r2_v1.2.,2013-02-23 04:19:00,
2013-02-22 23:24:00,34.6,31.7,30.21,ESE,107,0.0,1.0,89,0.00,,,0.06,HR-IXPWINDi_r2_v1.2.,2013-02-23 04:24:00,
2013-02-22 23:29:00,34.6,31.7,30.20,ESE,107,0.0,0.0,89,0.00,,,0.06,HR-IXPWINDi_r2_v1.2.,2013-02-23 04:29:00,
2013-02-22 23:34:00,34.6,31.7,30.21,ESE,107,0.0,1.0,89,0.00,,,0.06,HR-IXPWINDi_r2_v1.2.,2013-02-23 04:34:00,
2013-02-22 23:40:00,34.6,31.7,30.20,ESE,107,0.0,1.0,89,0.00,,,0.06,HR-IXPWINDi_r2_v1.2.,2013-02-23 04:40:00,
2013-02-22 23:45:00,34.6,31.7,30.20,ESE,107,0.0,1.0,89,0.00,,,0.06,HR-IXPWINDi_r2_v1.2.,2013-02-23 04:45:00,
2013-02-22 23:50:00,34.5,31.6,30.19,ESE,107,0.0,1.0,89,0.00,,,0.06,HR-IXPWINDi_r2_v1.2.,2013-02-23 04:50:00,
2013-02-22 23:55:00,34.5,31.6,30.19,ESE,107,0.0,1.0,89,0.00,,,0.06,HR-IXPWINDi_r2_v1.2.,2013-02-23 04:55:00,